• In Netherlands
  • List of Countries
  • For 7 days
  • Water Temperature
  • Satellite Maps
  • Weather Map
  • Weather Widgets
  • user-avatar
    Login

    Hourly Weather Sidi Bu-l-Abbas

    Today, 20 April, Friday

    Time Temperature Precipitation Wind Pressure Humidity
    00:00 +14°C° 0 mm 1 mps 721 mmHg 86%
    01:00 +14°C° 0 mm 1 mps 720 mmHg 87%
    02:00 +13°C° 0 mm 1 mps 720 mmHg 88%
    03:00 +13°C° 0 mm 1 mps 720 mmHg 88%
    04:00 +13°C° 0 mm 1 mps 720 mmHg 88%
    05:00 +13°C° 0 mm 1 mps 720 mmHg 88%
    06:00 +13°C° 0 mm 1 mps 720 mmHg 88%
    07:00 +15°C° 0 mm 2 mps 720 mmHg 78%
    08:00 +17°C° 0 mm 2 mps 721 mmHg 68%
    09:00 +20°C° 0 mm 2 mps 721 mmHg 57%
    10:00 +21°C° 0 mm 3 mps 721 mmHg 51%
    11:00 +24°C° 0 mm 3 mps 721 mmHg 46%
    12:00 +26°C° 0 mm 4 mps 721 mmHg 40%
    13:00 +26°C° 0 mm 4 mps 721 mmHg 39%
    14:00 +27°C° 0 mm 5 mps 720 mmHg 38%
    15:00 +27°C° 0 mm 6 mps 720 mmHg 37%
    16:00 +26°C° 0 mm 5 mps 719 mmHg 43%
    17:00 +25°C° 0 mm 5 mps 719 mmHg 49%
    18:00 +22°C° 0 mm 5 mps 719 mmHg 55%
    19:00 +21°C° 0 mm 4 mps 719 mmHg 61%
    20:00 +19°C° 0 mm 3 mps 719 mmHg 67%
    21:00 +18°C° 0 mm 2 mps 720 mmHg 73%
    22:00 +17°C° 0 mm 2 mps 720 mmHg 73%
    23:00 +17°C° 0 mm 2 mps 720 mmHg 73%

    Tomorrow, 21 April, Saturday

    Time Temperature Precipitation Wind Pressure Humidity
    00:00 +17°C° 0 mm 2 mps 720 mmHg 72%
    01:00 +16°C° 0 mm 2 mps 720 mmHg 72%
    02:00 +16°C° 0 mm 2 mps 720 mmHg 71%
    03:00 +16°C° 0 mm 2 mps 719 mmHg 71%
    04:00 +16°C° 0 mm 2 mps 720 mmHg 69%
    05:00 +16°C° 0 mm 2 mps 720 mmHg 67%
    06:00 +16°C° 0 mm 2 mps 720 mmHg 65%
    07:00 +19°C° 0 mm 3 mps 720 mmHg 55%
    08:00 +22°C° 0 mm 3 mps 721 mmHg 46%
    09:00 +25°C° 0 mm 4 mps 721 mmHg 37%
    10:00 +27°C° 0 mm 4 mps 721 mmHg 34%
    11:00 +28°C° 0 mm 4 mps 721 mmHg 31%
    12:00 +30°C° 0 mm 5 mps 721 mmHg 28%
    13:00 +30°C° 0 mm 5 mps 721 mmHg 28%
    14:00 +30°C° 0 mm 5 mps 720 mmHg 29%
    15:00 +30°C° 0 mm 6 mps 720 mmHg 29%
    16:00 +29°C° 0 mm 5 mps 720 mmHg 33%
    17:00 +28°C° 0 mm 5 mps 719 mmHg 36%
    18:00 +27°C° 0 mm 4 mps 719 mmHg 40%
    19:00 +26°C° 0 mm 5 mps 719 mmHg 40%
    20:00 +23°C° 0 mm 5 mps 720 mmHg 40%
    21:00 +22°C° 0 mm 5 mps 720 mmHg 40%
    22:00 +22°C° 0 mm 5 mps 720 mmHg 38%
    23:00 +22°C° 0 mm 5 mps 720 mmHg 36%

    Day after tomorrow, 22 April, Sunday

    Time Temperature Precipitation Wind Pressure Humidity
    00:00 +22°C° 0 mm 5 mps 720 mmHg 34%
    01:00 +21°C° 0 mm 5 mps 720 mmHg 34%
    02:00 +21°C° 0 mm 5 mps 719 mmHg 34%
    03:00 +20°C° 0 mm 5 mps 719 mmHg 34%
    04:00 +20°C° 0 mm 5 mps 719 mmHg 35%
    05:00 +20°C° 0 mm 5 mps 719 mmHg 36%
    06:00 +20°C° 0 mm 5 mps 719 mmHg 38%
    07:00 +22°C° 0 mm 5 mps 719 mmHg 33%
    08:00 +26°C° 0 mm 6 mps 720 mmHg 28%
    09:00 +29°C° 0 mm 7 mps 720 mmHg 23%
    10:00 +30°C° 0 mm 7 mps 720 mmHg 21%
    11:00 +32°C° 0 mm 7 mps 720 mmHg 19%
    12:00 +34°C° 0 mm 7 mps 720 mmHg 17%
    13:00 +34°C° 0 mm 6 mps 720 mmHg 17%
    14:00 +34°C° 0 mm 6 mps 719 mmHg 18%
    15:00 +34°C° 0 mm 6 mps 719 mmHg 19%
    16:00 +32°C° 0 mm 5 mps 719 mmHg 24%
    17:00 +30°C° 0 mm 5 mps 719 mmHg 29%
    18:00 +28°C° 0 mm 4 mps 718 mmHg 34%
    19:00 +27°C° 0 mm 4 mps 719 mmHg 32%
    20:00 +26°C° 0 mm 5 mps 719 mmHg 30%
    21:00 +25°C° 0 mm 5 mps 720 mmHg 28%
    22:00 +25°C° 0 mm 5 mps 720 mmHg 26%
    23:00 +24°C° 0 mm 6 mps 719 mmHg 24%

    23 April, Monday

    Time Temperature Precipitation Wind Pressure Humidity
    00:00 +24°C° 0 mm 6 mps 719 mmHg 22%
    01:00 +23°C° 0 mm 5 mps 719 mmHg 28%
    02:00 +22°C° 0 mm 4 mps 719 mmHg 33%
    03:00 +21°C° 0 mm 3 mps 719 mmHg 39%
    04:00 +21°C° 0.2 mm 3 mps 719 mmHg 45%
    05:00 +20°C° 0.2 mm 3 mps 719 mmHg 51%
    06:00 +19°C° 0.2 mm 2 mps 719 mmHg 57%
    07:00 +21°C° 0.2 mm 3 mps 720 mmHg 51%
    08:00 +23°C° 0.2 mm 4 mps 720 mmHg 46%
    09:00 +25°C° 0.2 mm 5 mps 721 mmHg 41%
    10:00 +27°C° 0 mm 6 mps 721 mmHg 34%
    11:00 +31°C° 0 mm 8 mps 721 mmHg 27%
    12:00 +33°C° 0 mm 9 mps 721 mmHg 20%
    13:00 +34°C° 0 mm 9 mps 720 mmHg 18%
    14:00 +35°C° 0 mm 9 mps 719 mmHg 17%
    15:00 +37°C° 0 mm 8 mps 719 mmHg 15%
    16:00 +34°C° 0 mm 7 mps 718 mmHg 18%
    17:00 +33°C° 0 mm 6 mps 718 mmHg 21%
    18:00 +30°C° 0 mm 5 mps 718 mmHg 24%
    19:00 +28°C° 0 mm 5 mps 718 mmHg 27%
    20:00 +27°C° 0 mm 4 mps 718 mmHg 30%
    21:00 +25°C° 0 mm 3 mps 718 mmHg 33%
    22:00 +23°C° 0 mm 4 mps 718 mmHg 36%
    23:00 +22°C° 0 mm 4 mps 718 mmHg 39%

    24 April, Tuesday

    Time Temperature Precipitation Wind Pressure Humidity
    00:00 +21°C° 0 mm 4 mps 718 mmHg 43%
    01:00 +21°C° 0 mm 4 mps 718 mmHg 44%
    02:00 +20°C° 0 mm 4 mps 718 mmHg 46%
    03:00 +20°C° 0 mm 3 mps 717 mmHg 48%
    04:00 +20°C° 0 mm 3 mps 718 mmHg 49%
    05:00 +19°C° 0 mm 3 mps 718 mmHg 51%
    06:00 +19°C° 0 mm 3 mps 719 mmHg 53%
    07:00 +22°C° 0 mm 3 mps 719 mmHg 46%
    08:00 +26°C° 0 mm 4 mps 720 mmHg 40%
    09:00 +29°C° 0 mm 4 mps 720 mmHg 33%
    10:00 +30°C° 0 mm 5 mps 720 mmHg 32%
    11:00 +32°C° 0 mm 5 mps 720 mmHg 30%
    12:00 +33°C° 0 mm 6 mps 720 mmHg 28%
    13:00 +32°C° 0.1 mm 6 mps 719 mmHg 33%
    14:00 +29°C° 0.1 mm 5 mps 718 mmHg 38%
    15:00 +28°C° 0.1 mm 5 mps 717 mmHg 42%
    16:00 +26°C° 0.2 mm 5 mps 717 mmHg 49%
    17:00 +25°C° 0.2 mm 4 mps 717 mmHg 56%
    18:00 +22°C° 0.2 mm 4 mps 717 mmHg 63%
    19:00 +21°C° 1.2 mm 3 mps 718 mmHg 68%
    20:00 +20°C° 1.2 mm 3 mps 718 mmHg 73%
    21:00 +18°C° 1.2 mm 2 mps 719 mmHg 78%
    22:00 +18°C° 0.2 mm 2 mps 718 mmHg 81%
    23:00 +18°C° 0.2 mm 2 mps 718 mmHg 83%

    25 April, Wednesday

    Time Temperature Precipitation Wind Pressure Humidity
    00:00 +18°C° 0.2 mm 1 mps 718 mmHg 86%
    01:00 +18°C° 0.2 mm 1 mps 718 mmHg 86%
    02:00 +18°C° 0.2 mm 1 mps 717 mmHg 87%
    03:00 +18°C° 0.2 mm 1 mps 717 mmHg 87%
    04:00 +18°C° 0.2 mm 1 mps 717 mmHg 86%
    05:00 +18°C° 0.2 mm 1 mps 717 mmHg 85%
    06:00 +17°C° 0.2 mm 2 mps 717 mmHg 84%
    07:00 +19°C° 0 mm 2 mps 717 mmHg 75%
    08:00 +20°C° 0 mm 2 mps 717 mmHg 66%
    09:00 +22°C° 0 mm 3 mps 718 mmHg 56%
    10:00 +23°C° 0 mm 4 mps 717 mmHg 56%
    11:00 +23°C° 0 mm 5 mps 717 mmHg 56%
    12:00 +24°C° 0 mm 6 mps 717 mmHg 56%
    13:00 +22°C° 0.1 mm 6 mps 716 mmHg 64%
    14:00 +20°C° 0.1 mm 6 mps 716 mmHg 71%
    15:00 +19°C° 0.1 mm 6 mps 715 mmHg 78%
    16:00 +17°C° 0.3 mm 7 mps 715 mmHg 80%
    17:00 +17°C° 0.3 mm 7 mps 715 mmHg 81%
    18:00 +16°C° 0.3 mm 7 mps 716 mmHg 83%
    19:00 +16°C° 0.2 mm 7 mps 716 mmHg 84%
    20:00 +15°C° 0.2 mm 6 mps 717 mmHg 86%
    21:00 +15°C° 0.2 mm 6 mps 718 mmHg 88%
    22:00 +15°C° 0.1 mm 5 mps 718 mmHg 87%
    23:00 +14°C° 0.1 mm 5 mps 718 mmHg 86%
    Show more